| time (UTC) | temp F | wind direction | speed MPH | gust MPH | rain 1hr in | rain 24hr in | rain mn in | humidity % | barometer mb |
| 20260903202739 | 94 | 189 | 1.0 | 5.0 | 0.00 | 0.00 | 0.00 | 63 | 1013.0 |
| 20260903202238 | 94 | 177 | 3.0 | 6.0 | 0.00 | 0.00 | 0.00 | 63 | 1012.8 |
| 20260903201739 | 94 | 170 | 3.0 | 9.0 | 0.00 | 0.00 | 0.00 | 63 | 1012.9 |
| 20260903201237 | 95 | 292 | 3.0 | 9.0 | 0.00 | 0.00 | 0.00 | 65 | 1012.9 |
| 20260903200738 | 94 | 73 | 3.0 | 5.0 | 0.00 | 0.00 | 0.00 | 63 | 1013.0 |
| 20260903200239 | 94 | 66 | 1.0 | 4.0 | 0.00 | 0.00 | 0.00 | 64 | 1013.1 |
| 20260903195738 | 94 | 233 | 3.0 | 9.0 | 0.00 | 0.00 | 0.00 | 63 | 1013.0 |
| 20260903195238 | 94 | 273 | 4.0 | 9.0 | 0.00 | 0.00 | 0.00 | 64 | 1013.0 |
| 20260903194739 | 94 | 181 | 3.0 | 8.0 | 0.00 | 0.00 | 0.00 | 61 | 1013.2 |
| 20260903194458 | 94 | 82 | 3.0 | 8.0 | 0.00 | 0.00 | 0.00 | 63 | 1013.1 |
| 20260903193734 | 94 | 274 | 4.0 | 9.0 | 0.00 | 0.00 | 0.00 | 63 | 1013.3 |
| 20260903193437 | 94 | 345 | 3.0 | 8.0 | 0.00 | 0.00 | 0.00 | 62 | 1013.3 |
| 20260903193323 | 94 | 93 | 4.0 | 9.0 | 0.00 | 0.00 | 0.00 | 61 | 1013.4 |
| 20260903192232 | 94 | 52 | 3.0 | 8.0 | 0.00 | 0.00 | 0.00 | 62 | 1013.5 |
| 20260903191959 | 94 | 293 | 3.0 | 9.0 | 0.00 | 0.00 | 0.00 | 62 | 1013.6 |
| 20260903191232 | 94 | 324 | 4.0 | 9.0 | 0.00 | 0.00 | 0.00 | 63 | 1013.6 |
| 20260903190731 | 94 | 78 | 4.0 | 10.0 | 0.00 | 0.00 | 0.00 | 64 | 1013.6 |
| 20260903190236 | 94 | 307 | 4.0 | 10.0 | 0.00 | 0.00 | 0.00 | 63 | 1013.8 |
| 20260903185728 | 94 | 56 | 3.0 | 8.0 | 0.00 | 0.00 | 0.00 | 62 | 1013.9 |
| 20260903185221 | 94 | 315 | 3.0 | 8.0 | 0.00 | 0.00 | 0.00 | 65 | 1013.9 |
| 20260903184715 | 94 | 307 | 1.0 | 6.0 | 0.00 | 0.00 | 0.00 | 62 | 1013.9 |
| 20260903184209 | 94 | 125 | 1.0 | 5.0 | 0.00 | 0.00 | 0.00 | 61 | 1013.9 |
| 20260903183703 | 94 | 155 | 1.0 | 5.0 | 0.00 | 0.00 | 0.00 | 63 | 1014.0 |
| 20260903183157 | 94 | 292 | 1.0 | 5.0 | 0.00 | 0.00 | 0.00 | 63 | 1014.2 |
| 20260903182650 | 93 | 187 | 3.0 | 8.0 | 0.00 | 0.00 | 0.00 | 66 | 1014.2 |
| 20260903182408 | 93 | 310 | 4.0 | 9.0 | 0.00 | 0.00 | 0.00 | 64 | 1014.3 |
| 20260903182123 | 93 | 289 | 3.0 | 9.0 | 0.00 | 0.00 | 0.00 | 63 | 1014.3 |
| 20260903181133 | 93 | 292 | 3.0 | 6.0 | 0.00 | 0.00 | 0.00 | 65 | 1014.4 |
| 20260903180627 | 92 | 0 | 1.0 | 6.0 | 0.00 | 0.00 | 0.00 | 67 | 1014.4 |
| 20260903180122 | 92 | 157 | 1.0 | 4.0 | 0.00 | 0.00 | 0.00 | 66 | 1014.5 |
| 20260903175615 | 92 | 139 | 1.0 | 4.0 | 0.00 | 0.00 | 0.00 | 69 | 1014.6 |
| 20260903175109 | 92 | 279 | 1.0 | 4.0 | 0.00 | 0.00 | 0.00 | 66 | 1014.6 |
| 20260903174603 | 92 | 277 | 1.0 | 5.0 | 0.00 | 0.00 | 0.00 | 70 | 1014.7 |
| 20260903174314 | 91 | 61 | 3.0 | 5.0 | 0.00 | 0.00 | 0.00 | 70 | 1014.8 |
| 20260903173550 | 91 | 292 | 3.0 | 6.0 | 0.00 | 0.00 | 0.00 | 70 | 1015.0 |
| 20260903173045 | 92 | 310 | 3.0 | 8.0 | 0.00 | 0.00 | 0.00 | 70 | 1015.0 |
| 20260903172539 | 91 | 270 | 1.0 | 8.0 | 0.00 | 0.00 | 0.00 | 70 | 1014.9 |
| 20260903172034 | 92 | 155 | 1.0 | 4.0 | 0.00 | 0.00 | 0.00 | 72 | 1015.0 |
| 20260903171747 | 91 | 154 | 3.0 | 8.0 | 0.00 | 0.00 | 0.00 | 72 | 1015.1 |
| 20260903171021 | 91 | 161 | 4.0 | 9.0 | 0.00 | 0.00 | 0.00 | 71 | 1015.1 |
| 20260903170515 | 92 | 303 | 3.0 | 9.0 | 0.00 | 0.00 | 0.00 | 71 | 1015.2 |
| 20260903170457 | 92 | 278 | 1.0 | 6.0 | 0.00 | 0.00 | 0.00 | 69 | 1015.1 |
| 20260903165501 | 92 | 310 | 3.0 | 6.0 | 0.00 | 0.00 | 0.00 | 70 | 1015.1 |
| 20260903165002 | 92 | 120 | 3.0 | 11.0 | 0.00 | 0.00 | 0.00 | 70 | 1015.3 |
| 20260903164451 | 93 | 291 | 1.0 | 11.0 | 0.00 | 0.00 | 0.00 | 73 | 1015.3 |
| 20260903163946 | 92 | 128 | 0.0 | 4.0 | 0.00 | 0.00 | 0.00 | 73 | 1015.3 |
| 20260903163439 | 91 | 128 | 1.0 | 4.0 | 0.00 | 0.00 | 0.00 | 75 | 1015.3 |
| 20260903162933 | 90 | 75 | 1.0 | 4.0 | 0.00 | 0.00 | 0.00 | 77 | 1015.3 |
| 20260903162427 | 89 | 270 | 1.0 | 5.0 | 0.00 | 0.00 | 0.00 | 78 | 1015.4 |
| 20260903162141 | 88 | 293 | 1.0 | 5.0 | 0.00 | 0.00 | 0.00 | 81 | 1015.4 |
| 20260903161415 | 88 | 274 | 3.0 | 5.0 | 0.00 | 0.00 | 0.00 | 82 | 1015.4 |
| 20260903160403 | 86 | 279 | 1.0 | 5.0 | 0.00 | 0.00 | 0.00 | 86 | 1015.4 |
| 20260903155858 | 85 | 286 | 1.0 | 4.0 | 0.00 | 0.00 | 0.00 | 92 | 1015.4 |
| 20260903155351 | 84 | 260 | 0.0 | 3.0 | 0.00 | 0.00 | 0.00 | 99 | 1015.4 |
| 20260903154846 | 83 | 305 | 0.0 | 3.0 | 0.00 | 0.00 | 0.00 | 99 | 1015.5 |
| 20260903154339 | 83 | 305 | 0.0 | 3.0 | 0.00 | 0.00 | 0.00 | 98 | 1015.5 |
| 20260903154051 | 83 | 305 | 1.0 | 4.0 | 0.00 | 0.00 | 0.00 | 98 | 1015.4 |
| 20260903153327 | 83 | 305 | 1.0 | 4.0 | 0.00 | 0.00 | 0.00 | 99 | 1015.5 |
| 20260903152820 | 83 | 303 | 0.0 | 3.0 | 0.00 | 0.00 | 0.00 | 100 | 1015.4 |
| 20260903152315 | 83 | 282 | 0.0 | 1.0 | 0.00 | 0.00 | 0.00 | 100 | 1015.3 |
| 20260903151809 | 82 | 284 | 1.0 | 4.0 | 0.00 | 0.00 | 0.00 | 99 | 1015.3 |
| 20260903151526 | 82 | 284 | 1.0 | 4.0 | 0.00 | 0.00 | 0.00 | 99 | 1015.3 |
| 20260903150757 | 82 | 301 | 1.0 | 4.0 | 0.00 | 0.00 | 0.00 | 99 | 1015.3 |
| 20260903150251 | 82 | 250 | 1.0 | 4.0 | 0.00 | 0.00 | 0.00 | 99 | 1015.3 |
| 20260903145745 | 82 | 112 | 1.0 | 4.0 | 0.00 | 0.00 | 0.00 | 100 | 1015.2 |
| 20260903145239 | 82 | 137 | 1.0 | 4.0 | 0.00 | 0.00 | 0.00 | 100 | 1015.4 |
| 20260903144733 | 81 | 315 | 1.0 | 4.0 | 0.00 | 0.00 | 0.00 | 99 | 1015.3 |
| 20260903144227 | 81 | 181 | 1.0 | 4.0 | 0.00 | 0.00 | 0.00 | 100 | 1015.4 |
| 20260903143721 | 81 | 195 | 1.0 | 4.0 | 0.00 | 0.00 | 0.00 | 100 | 1015.3 |
| 20260903143215 | 81 | 296 | 1.0 | 5.0 | 0.00 | 0.00 | 0.00 | 100 | 1015.5 |
| 20260903142709 | 81 | 282 | 1.0 | 5.0 | 0.00 | 0.00 | 0.00 | 100 | 1015.5 |
| 20260903142203 | 81 | 184 | 1.0 | 5.0 | 0.00 | 0.00 | 0.00 | 100 | 1015.4 |
| 20260903141918 | 81 | 189 | 1.0 | 5.0 | 0.00 | 0.00 | 0.00 | 100 | 1015.5 |
| 20260903141151 | 81 | 196 | 0.0 | 4.0 | 0.00 | 0.00 | 0.00 | 100 | 1015.4 |
| 20260903140758 | 82 | 99 | 0.0 | 3.0 | 0.00 | 0.00 | 0.00 | 96 | 1015.2 |
| 20260903140737 | 81 | 282 | 1.0 | 4.0 | 0.00 | 0.00 | 0.00 | 99 | 1015.3 |
| 20260903140620 | 81 | 122 | 0.0 | 3.0 | 0.00 | 0.00 | 0.00 | 99 | 1015.3 |
| 20260903140503 | 82 | 94 | 0.0 | 3.0 | 0.00 | 0.00 | 0.00 | 99 | 1015.2 |
| 20260903140342 | 83 | 164 | 0.0 | 3.0 | 0.00 | 0.00 | 0.00 | 96 | 1015.2 |
| 20260903134621 | 82 | 99 | 0.0 | 3.0 | 0.00 | 0.00 | 0.00 | 96 | 1015.2 |
| 20260903134341 | 82 | 156 | 0.0 | 3.0 | 0.00 | 0.00 | 0.00 | 96 | 1015.4 |
| 20260903133832 | 82 | 208 | 0.0 | 3.0 | 0.00 | 0.00 | 0.00 | 96 | 1015.4 |
| 20260903133330 | 82 | 108 | 0.0 | 3.0 | 0.00 | 0.00 | 0.00 | 98 | 1015.5 |
| 20260903132557 | 81 | 128 | 0.0 | 3.0 | 0.00 | 0.00 | 0.00 | 97 | 1015.4 |
| 20260903132050 | 82 | 84 | 0.0 | 1.0 | 0.00 | 0.00 | 0.00 | 98 | 1015.5 |
| 20260903131546 | 81 | 97 | 0.0 | 1.0 | 0.00 | 0.00 | 0.00 | 97 | 1015.5 |
| 20260903131039 | 80 | 95 | 0.0 | 1.0 | 0.00 | 0.00 | 0.00 | 98 | 1015.7 |
| 20260903130537 | 80 | 85 | 0.0 | 1.0 | 0.00 | 0.00 | 0.00 | 99 | 1015.6 |
| 20260903130304 | 79 | 100 | 0.0 | 1.0 | 0.00 | 0.00 | 0.00 | 100 | 1015.5 |
| 20260903125535 | 79 | 90 | 0.0 | 1.0 | 0.00 | 0.00 | 0.00 | 100 | 1015.6 |
| 20260903125033 | 79 | 97 | 0.0 | 1.0 | 0.00 | 0.00 | 0.00 | 100 | 1015.5 |
| 20260903124533 | 78 | 104 | 0.0 | 0.0 | 0.00 | 0.00 | 0.00 | 100 | 1015.6 |
| 20260903124248 | 78 | 102 | 0.0 | 0.0 | 0.00 | 0.00 | 0.00 | 100 | 1015.5 |
| 20260903123528 | 77 | 102 | 0.0 | 0.0 | 0.00 | 0.00 | 0.00 | 100 | 1015.5 |
| 20260903123024 | 77 | 102 | 0.0 | 0.0 | 0.00 | 0.00 | 0.00 | 100 | 1015.4 |
| 20260903122832 | 77 | 102 | 0.0 | 0.0 | 0.00 | 0.00 | 0.00 | 100 | 1015.2 |
| 20260903122826 | 77 | 102 | 0.0 | 0.0 | 0.00 | 0.00 | 0.00 | 100 | 1015.2 |
| 20260903122742 | 77 | 102 | 0.0 | 0.0 | 0.00 | 0.00 | 0.00 | 100 | 1015.3 |
| 20260903122632 | 77 | 102 | 0.0 | 0.0 | 0.00 | 0.00 | 0.00 | 100 | 1015.2 |
| 20260903122254 | 77 | 102 | 0.0 | 0.0 | 0.00 | 0.00 | 0.00 | 100 | 1015.2 |
| 20260903120529 | 77 | 102 | 0.0 | 0.0 | 0.00 | 0.00 | 0.00 | 100 | 1015.2 |
| 20260903120024 | 76 | 102 | 0.0 | 0.0 | 0.00 | 0.00 | 0.00 | 100 | 1015.2 |
| 20260903115523 | 76 | 102 | 0.0 | 0.0 | 0.00 | 0.00 | 0.00 | 100 | 1015.0 |
| 20260903115024 | 76 | 102 | 0.0 | 0.0 | 0.00 | 0.00 | 0.00 | 100 | 1014.9 |
| 20260903114524 | 76 | 102 | 0.0 | 0.0 | 0.00 | 0.00 | 0.00 | 100 | 1014.9 |
| 20260903114249 | 76 | 102 | 0.0 | 0.0 | 0.00 | 0.00 | 0.00 | 100 | 1014.8 |
| 20260903113523 | 76 | 102 | 0.0 | 0.0 | 0.00 | 0.00 | 0.00 | 100 | 1014.7 |
| 20260903113510 | 76 | 102 | 0.0 | 0.0 | 0.00 | 0.00 | 0.00 | 100 | 1014.8 |
| 20260903112524 | 76 | 102 | 0.0 | 0.0 | 0.00 | 0.00 | 0.00 | 100 | 1014.7 |
| 20260903112024 | 76 | 102 | 0.0 | 0.0 | 0.00 | 0.00 | 0.00 | 100 | 1014.5 |
| 20260903111519 | 76 | 102 | 0.0 | 0.0 | 0.00 | 0.00 | 0.00 | 100 | 1014.3 |
| 20260903111018 | 76 | 102 | 0.0 | 0.0 | 0.00 | 0.00 | 0.00 | 100 | 1014.3 |
| 20260903110520 | 76 | 102 | 0.0 | 0.0 | 0.00 | 0.00 | 0.00 | 100 | 1014.4 |
| 20260903110019 | 76 | 102 | 0.0 | 0.0 | 0.00 | 0.00 | 0.00 | 100 | 1014.4 |
| 20260903105519 | 77 | 102 | 0.0 | 0.0 | 0.00 | 0.00 | 0.00 | 100 | 1014.3 |
| 20260903105020 | 77 | 102 | 0.0 | 0.0 | 0.00 | 0.00 | 0.00 | 100 | 1014.2 |
| 20260903104520 | 77 | 102 | 0.0 | 0.0 | 0.00 | 0.00 | 0.00 | 100 | 1014.2 |
| 20260903104020 | 77 | 102 | 0.0 | 0.0 | 0.00 | 0.00 | 0.00 | 100 | 1014.1 |
| 20260903103520 | 77 | 102 | 0.0 | 0.0 | 0.00 | 0.00 | 0.00 | 100 | 1014.1 |
| 20260903103013 | 77 | 102 | 0.0 | 0.0 | 0.00 | 0.00 | 0.00 | 100 | 1014.0 |
| 20260903102507 | 77 | 102 | 0.0 | 0.0 | 0.00 | 0.00 | 0.00 | 100 | 1014.1 |
| 20260903102001 | 77 | 102 | 0.0 | 0.0 | 0.00 | 0.00 | 0.00 | 100 | 1014.0 |
| 20260903101455 | 77 | 102 | 0.0 | 0.0 | 0.00 | 0.00 | 0.00 | 100 | 1014.1 |
| 20260903100949 | 77 | 102 | 0.0 | 0.0 | 0.00 | 0.00 | 0.00 | 100 | 1014.0 |
| 20260903100444 | 77 | 102 | 0.0 | 0.0 | 0.00 | 0.00 | 0.00 | 100 | 1014.0 |
| 20260903095937 | 77 | 102 | 0.0 | 0.0 | 0.00 | 0.00 | 0.00 | 100 | 1014.0 |
| 20260903095431 | 77 | 102 | 0.0 | 0.0 | 0.00 | 0.00 | 0.00 | 100 | 1013.8 |
| 20260903095415 | 77 | 102 | 0.0 | 0.0 | 0.00 | 0.00 | 0.00 | 100 | 1014.0 |
| 20260903094640 | 77 | 102 | 0.0 | 0.0 | 0.00 | 0.00 | 0.00 | 100 | 1013.9 |
| 20260903093913 | 77 | 102 | 0.0 | 0.0 | 0.00 | 0.00 | 0.00 | 100 | 1013.7 |
| 20260903093407 | 77 | 102 | 0.0 | 0.0 | 0.00 | 0.00 | 0.00 | 100 | 1013.7 |
| 20260903092903 | 77 | 102 | 0.0 | 0.0 | 0.00 | 0.00 | 0.00 | 100 | 1013.6 |
| 20260903092355 | 77 | 102 | 0.0 | 0.0 | 0.00 | 0.00 | 0.00 | 100 | 1013.6 |
| 20260903092114 | 77 | 102 | 0.0 | 0.0 | 0.00 | 0.00 | 0.00 | 100 | 1013.5 |
| 20260903091342 | 77 | 102 | 0.0 | 0.0 | 0.00 | 0.00 | 0.00 | 100 | 1013.5 |
| 20260903090837 | 77 | 102 | 0.0 | 0.0 | 0.00 | 0.00 | 0.00 | 100 | 1013.6 |
| 20260903090331 | 78 | 102 | 0.0 | 0.0 | 0.00 | 0.00 | 0.00 | 100 | 1013.7 |
| 20260903085825 | 78 | 102 | 0.0 | 0.0 | 0.00 | 0.00 | 0.00 | 100 | 1013.7 |
| 20260903085319 | 78 | 102 | 0.0 | 0.0 | 0.00 | 0.00 | 0.00 | 100 | 1013.7 |
| 20260903085039 | 78 | 102 | 0.0 | 0.0 | 0.00 | 0.00 | 0.00 | 100 | 1013.7 |
| 20260903084747 | 78 | 102 | 0.0 | 0.0 | 0.00 | 0.00 | 0.00 | 100 | 1013.7 |
| 20260903083801 | 78 | 102 | 0.0 | 0.0 | 0.00 | 0.00 | 0.00 | 100 | 1013.8 |
| 20260903083255 | 78 | 102 | 0.0 | 0.0 | 0.00 | 0.00 | 0.00 | 100 | 1013.6 |
| 20260903083009 | 78 | 102 | 0.0 | 0.0 | 0.00 | 0.00 | 0.00 | 100 | 1013.7 |
| 20260903082243 | 78 | 102 | 0.0 | 0.0 | 0.00 | 0.00 | 0.00 | 100 | 1013.7 |
| 20260903082003 | 78 | 102 | 0.0 | 0.0 | 0.00 | 0.00 | 0.00 | 100 | 1013.7 |
| 20260903081231 | 78 | 102 | 0.0 | 0.0 | 0.00 | 0.00 | 0.00 | 100 | 1013.7 |
| 20260903080725 | 78 | 102 | 0.0 | 0.0 | 0.00 | 0.00 | 0.00 | 99 | 1013.6 |
| 20260903080441 | 78 | 102 | 0.0 | 0.0 | 0.00 | 0.00 | 0.00 | 99 | 1013.8 |
| 20260903075713 | 78 | 102 | 0.0 | 0.0 | 0.00 | 0.00 | 0.00 | 100 | 1013.8 |
| 20260903075207 | 78 | 102 | 0.0 | 0.0 | 0.00 | 0.00 | 0.00 | 99 | 1013.8 |
| 20260903074701 | 78 | 102 | 0.0 | 0.0 | 0.00 | 0.00 | 0.00 | 99 | 1014.0 |
| 20260903074415 | 78 | 102 | 0.0 | 0.0 | 0.00 | 0.00 | 0.00 | 99 | 1014.0 |
| 20260903073908 | 78 | 102 | 0.0 | 0.0 | 0.00 | 0.00 | 0.00 | 99 | 1014.1 |
| 20260903073143 | 78 | 102 | 0.0 | 0.0 | 0.00 | 0.00 | 0.00 | 99 | 1014.1 |
| 20260903072637 | 78 | 102 | 0.0 | 0.0 | 0.00 | 0.00 | 0.00 | 99 | 1014.1 |
| 20260903072355 | 78 | 102 | 0.0 | 1.0 | 0.00 | 0.00 | 0.00 | 99 | 1014.1 |
| 20260903071625 | 78 | 102 | 0.0 | 0.0 | 0.00 | 0.00 | 0.00 | 99 | 1014.1 |
| 20260903071119 | 78 | 102 | 0.0 | 0.0 | 0.00 | 0.00 | 0.00 | 99 | 1014.2 |
| 20260903070834 | 78 | 102 | 0.0 | 0.0 | 0.00 | 0.00 | 0.00 | 99 | 1014.1 |
| 20260903070107 | 78 | 102 | 0.0 | 0.0 | 0.00 | 0.00 | 0.00 | 99 | 1014.2 |
| 20260903065601 | 78 | 102 | 0.0 | 0.0 | 0.00 | 0.00 | 0.00 | 99 | 1014.2 |
| 20260903065323 | 78 | 102 | 0.0 | 0.0 | 0.00 | 0.00 | 0.00 | 99 | 1014.2 |
| 20260903064549 | 78 | 102 | 0.0 | 0.0 | 0.00 | 0.00 | 0.00 | 99 | 1014.3 |
| 20260903064309 | 78 | 102 | 0.0 | 0.0 | 0.00 | 0.00 | 0.00 | 99 | 1014.3 |
| 20260903063537 | 78 | 102 | 0.0 | 0.0 | 0.00 | 0.00 | 0.00 | 99 | 1014.4 |
| 20260903063254 | 78 | 102 | 0.0 | 0.0 | 0.00 | 0.00 | 0.00 | 99 | 1014.4 |
| 20260903062525 | 78 | 102 | 0.0 | 0.0 | 0.00 | 0.00 | 0.00 | 98 | 1014.3 |
| 20260903062019 | 78 | 102 | 0.0 | 0.0 | 0.00 | 0.00 | 0.00 | 98 | 1014.3 |
| 20260903061513 | 79 | 102 | 0.0 | 0.0 | 0.00 | 0.00 | 0.00 | 98 | 1014.3 |
| 20260903061007 | 79 | 102 | 0.0 | 0.0 | 0.00 | 0.00 | 0.00 | 98 | 1014.3 |
| 20260903060501 | 79 | 102 | 0.0 | 0.0 | 0.00 | 0.00 | 0.00 | 98 | 1014.3 |
| 20260903055955 | 79 | 102 | 0.0 | 0.0 | 0.00 | 0.00 | 0.00 | 98 | 1014.4 |
| 20260903055449 | 79 | 102 | 0.0 | 0.0 | 0.00 | 0.00 | 0.00 | 98 | 1014.5 |
| 20260903054943 | 79 | 102 | 0.0 | 0.0 | 0.00 | 0.00 | 0.00 | 98 | 1014.7 |
| 20260903054437 | 79 | 102 | 0.0 | 0.0 | 0.00 | 0.00 | 0.00 | 98 | 1014.8 |
| 20260903053931 | 79 | 102 | 0.0 | 0.0 | 0.00 | 0.00 | 0.00 | 98 | 1014.6 |
| 20260903053425 | 79 | 102 | 0.0 | 0.0 | 0.00 | 0.00 | 0.00 | 98 | 1014.7 |
| 20260903052919 | 80 | 102 | 0.0 | 0.0 | 0.00 | 0.00 | 0.00 | 98 | 1014.7 |
| 20260903052413 | 80 | 102 | 0.0 | 0.0 | 0.00 | 0.00 | 0.00 | 98 | 1014.8 |
| 20260903051907 | 80 | 102 | 0.0 | 0.0 | 0.00 | 0.00 | 0.00 | 98 | 1014.8 |
| 20260903051401 | 80 | 102 | 0.0 | 0.0 | 0.00 | 0.00 | 0.00 | 98 | 1014.9 |
| 20260903050855 | 80 | 102 | 0.0 | 0.0 | 0.00 | 0.00 | 0.00 | 98 | 1014.9 |
| 20260903050349 | 80 | 102 | 0.0 | 0.0 | 0.00 | 0.00 | 0.00 | 98 | 1014.9 |
| 20260903045843 | 80 | 102 | 0.0 | 0.0 | 0.00 | 0.00 | 0.00 | 99 | 1014.9 |
| 20260903045338 | 79 | 102 | 0.0 | 0.0 | 0.00 | 0.00 | 0.00 | 98 | 1014.9 |
| 20260903044831 | 79 | 102 | 0.0 | 0.0 | 0.00 | 0.00 | 0.00 | 98 | 1015.1 |
| 20260903044325 | 79 | 102 | 0.0 | 0.0 | 0.00 | 0.00 | 0.00 | 97 | 1015.1 |
| 20260903043819 | 79 | 102 | 0.0 | 0.0 | 0.00 | 0.00 | 0.00 | 97 | 1015.1 |
| 20260903043313 | 79 | 102 | 0.0 | 0.0 | 0.00 | 0.00 | 0.00 | 97 | 1015.2 |
| 20260903042807 | 79 | 102 | 0.0 | 0.0 | 0.00 | 0.00 | 0.00 | 97 | 1015.2 |
| 20260903042301 | 80 | 102 | 0.0 | 0.0 | 0.00 | 0.00 | 0.00 | 97 | 1015.2 |
| 20260903041800 | 80 | 102 | 0.0 | 1.0 | 0.00 | 0.00 | 0.00 | 97 | 1015.1 |
| 20260903041249 | 80 | 102 | 0.0 | 1.0 | 0.00 | 0.00 | 0.00 | 96 | 1015.1 |
| 20260903040743 | 80 | 102 | 0.0 | 0.0 | 0.00 | 0.00 | 0.00 | 96 | 1015.1 |
| 20260903040237 | 80 | 102 | 0.0 | 0.0 | 0.00 | 0.00 | 0.00 | 96 | 1015.2 |
| 20260903035954 | 80 | 102 | 0.0 | 1.0 | 0.00 | 0.00 | 0.00 | 96 | 1015.3 |
| 20260903035225 | 80 | 102 | 0.0 | 1.0 | 0.00 | 0.00 | 0.00 | 96 | 1015.3 |
| 20260903034719 | 81 | 102 | 0.0 | 0.0 | 0.00 | 0.00 | 0.00 | 96 | 1015.3 |
| 20260903034213 | 81 | 102 | 0.0 | 0.0 | 0.00 | 0.00 | 0.00 | 96 | 1015.3 |
| 20260903033707 | 81 | 102 | 0.0 | 0.0 | 0.00 | 0.00 | 0.00 | 96 | 1015.4 |
| 20260903033201 | 81 | 102 | 0.0 | 1.0 | 0.00 | 0.00 | 0.00 | 96 | 1015.4 |
| 20260903032914 | 81 | 102 | 0.0 | 1.0 | 0.00 | 0.00 | 0.00 | 95 | 1015.4 |
| 20260903032149 | 81 | 102 | 0.0 | 1.0 | 0.00 | 0.00 | 0.00 | 95 | 1015.3 |
| 20260903031643 | 81 | 102 | 0.0 | 1.0 | 0.00 | 0.00 | 0.00 | 95 | 1015.4 |
| 20260903031137 | 82 | 102 | 0.0 | 1.0 | 0.00 | 0.00 | 0.00 | 95 | 1015.4 |
| 20260903030631 | 82 | 102 | 0.0 | 1.0 | 0.00 | 0.00 | 0.00 | 94 | 1015.4 |
| 20260903030125 | 82 | 102 | 0.0 | 3.0 | 0.00 | 0.00 | 0.00 | 94 | 1015.4 |
| 20260903025619 | 82 | 101 | 0.0 | 3.0 | 0.00 | 0.00 | 0.00 | 94 | 1015.4 |
| 20260903025114 | 82 | 102 | 0.0 | 1.0 | 0.00 | 0.00 | 0.00 | 94 | 1015.3 |
| 20260903024608 | 82 | 101 | 0.0 | 0.0 | 0.00 | 0.00 | 0.00 | 95 | 1015.2 |
| 20260903024101 | 82 | 102 | 0.0 | 0.0 | 0.00 | 0.00 | 0.00 | 95 | 1015.1 |
| 20260903023555 | 82 | 102 | 0.0 | 0.0 | 0.00 | 0.00 | 0.00 | 94 | 1015.1 |
| 20260903023049 | 82 | 102 | 0.0 | 0.0 | 0.00 | 0.00 | 0.00 | 95 | 1014.9 |
| 20260903022543 | 82 | 102 | 0.0 | 0.0 | 0.00 | 0.00 | 0.00 | 94 | 1014.9 |
| 20260903022037 | 82 | 102 | 0.0 | 0.0 | 0.00 | 0.00 | 0.00 | 94 | 1014.9 |
| 20260903021532 | 82 | 102 | 0.0 | 0.0 | 0.00 | 0.00 | 0.00 | 94 | 1014.8 |
| 20260903021026 | 82 | 101 | 0.0 | 0.0 | 0.00 | 0.00 | 0.00 | 93 | 1014.7 |
| 20260903020519 | 82 | 101 | 0.0 | 0.0 | 0.00 | 0.00 | 0.00 | 93 | 1014.7 |
| 20260903020013 | 82 | 101 | 0.0 | 0.0 | 0.00 | 0.00 | 0.00 | 94 | 1014.6 |
| 20260903015507 | 82 | 101 | 0.0 | 0.0 | 0.00 | 0.00 | 0.00 | 93 | 1014.6 |
| 20260903015001 | 82 | 101 | 0.0 | 0.0 | 0.00 | 0.00 | 0.00 | 93 | 1014.5 |
| 20260903014455 | 82 | 101 | 0.0 | 0.0 | 0.00 | 0.00 | 0.00 | 93 | 1014.5 |
| 20260903013950 | 82 | 101 | 0.0 | 0.0 | 0.00 | 0.00 | 0.00 | 93 | 1014.3 |
| 20260903013443 | 82 | 101 | 0.0 | 0.0 | 0.00 | 0.00 | 0.00 | 92 | 1014.3 |
| 20260903012937 | 82 | 101 | 0.0 | 0.0 | 0.00 | 0.00 | 0.00 | 92 | 1014.4 |
| 20260903012431 | 82 | 101 | 0.0 | 1.0 | 0.00 | 0.00 | 0.00 | 92 | 1014.2 |
| 20260903011925 | 83 | 101 | 0.0 | 1.0 | 0.00 | 0.00 | 0.00 | 92 | 1014.3 |
| 20260903011426 | 83 | 101 | 0.0 | 1.0 | 0.00 | 0.00 | 0.00 | 92 | 1014.3 |
| 20260903011311 | 83 | 101 | 0.0 | 1.0 | 0.00 | 0.00 | 0.00 | 91 | 1014.4 |
| 20260903011306 | 83 | 101 | 0.0 | 1.0 | 0.00 | 0.00 | 0.00 | 89 | 1014.5 |
| 20260903011211 | 83 | 101 | 0.0 | 1.0 | 0.00 | 0.00 | 0.00 | 91 | 1014.3 |
| 20260903010829 | 83 | 101 | 0.0 | 1.0 | 0.00 | 0.00 | 0.00 | 91 | 1014.5 |
| 20260903010707 | 83 | 101 | 0.0 | 1.0 | 0.00 | 0.00 | 0.00 | 90 | 1014.4 |
| 20260903004919 | 83 | 101 | 0.0 | 1.0 | 0.00 | 0.00 | 0.00 | 89 | 1014.5 |
| 20260903004419 | 83 | 101 | 0.0 | 0.0 | 0.00 | 0.00 | 0.00 | 89 | 1014.6 |
| 20260903003922 | 83 | 101 | 0.0 | 1.0 | 0.00 | 0.00 | 0.00 | 89 | 1014.5 |
| 20260903003419 | 83 | 101 | 0.0 | 1.0 | 0.00 | 0.00 | 0.00 | 89 | 1014.6 |
| 20260903003144 | 84 | 101 | 0.0 | 1.0 | 0.00 | 0.00 | 0.00 | 88 | 1014.6 |
| 20260903002416 | 84 | 101 | 0.0 | 3.0 | 0.00 | 0.00 | 0.00 | 88 | 1014.6 |
| 20260903001916 | 84 | 100 | 0.0 | 1.0 | 0.00 | 0.00 | 0.00 | 88 | 1014.5 |
| 20260903001422 | 84 | 100 | 0.0 | 1.0 | 0.00 | 0.00 | 0.00 | 87 | 1014.5 |
| 20260903000914 | 85 | 100 | 0.0 | 3.0 | 0.00 | 0.00 | 0.00 | 87 | 1014.4 |
| 20260903000414 | 85 | 99 | 0.0 | 3.0 | 0.00 | 0.00 | 0.00 | 87 | 1014.3 |
| 20260902235915 | 85 | 101 | 1.0 | 5.0 | 0.00 | 0.00 | 0.00 | 87 | 1014.3 |
| 20260902235415 | 85 | 100 | 1.0 | 5.0 | 0.00 | 0.00 | 0.00 | 86 | 1014.3 |
| 20260902234915 | 85 | 104 | 1.0 | 5.0 | 0.00 | 0.00 | 0.00 | 85 | 1014.2 |
| 20260902234409 | 85 | 103 | 1.0 | 3.0 | 0.00 | 0.00 | 0.00 | 85 | 1014.1 |
| 20260902234112 | 85 | 97 | 3.0 | 5.0 | 0.00 | 0.00 | 0.00 | 85 | 1014.1 |
| 20260902233957 | 85 | 100 | 1.0 | 5.0 | 0.00 | 0.00 | 0.00 | 85 | 1014.3 |
| 20260902232851 | 85 | 81 | 1.0 | 5.0 | 0.00 | 0.00 | 0.00 | 84 | 1014.2 |
| 20260902232345 | 85 | 110 | 1.0 | 3.0 | 0.00 | 0.00 | 0.00 | 84 | 1014.0 |
| 20260902231839 | 85 | 118 | 0.0 | 3.0 | 0.00 | 0.00 | 0.00 | 84 | 1014.2 |
| 20260902231334 | 85 | 119 | 0.0 | 4.0 | 0.00 | 0.00 | 0.00 | 84 | 1014.3 |
| 20260902230827 | 85 | 118 | 0.0 | 4.0 | 0.00 | 0.00 | 0.00 | 84 | 1014.4 |
| 20260902230322 | 85 | 110 | 0.0 | 3.0 | 0.00 | 0.00 | 0.00 | 84 | 1014.2 |
| 20260902225822 | 85 | 110 | 0.0 | 0.0 | 0.00 | 0.00 | 0.00 | 84 | 1014.4 |
| 20260902225322 | 85 | 110 | 0.0 | 1.0 | 0.00 | 0.00 | 0.00 | 83 | 1014.5 |
| 20260902224823 | 85 | 110 | 0.0 | 3.0 | 0.00 | 0.00 | 0.00 | 83 | 1014.5 |
| 20260902224545 | 85 | 110 | 0.0 | 3.0 | 0.00 | 0.00 | 0.00 | 83 | 1014.4 |
| 20260902223822 | 85 | 111 | 0.0 | 1.0 | 0.00 | 0.00 | 0.00 | 83 | 1014.4 |
| 20260902223325 | 85 | 111 | 1.0 | 3.0 | 0.00 | 0.00 | 0.00 | 83 | 1014.4 |
| 20260902223049 | 86 | 106 | 1.0 | 4.0 | 0.00 | 0.00 | 0.00 | 82 | 1014.3 |
| 20260902222321 | 86 | 105 | 1.0 | 5.0 | 0.00 | 0.00 | 0.00 | 81 | 1014.6 |
| 20260902222043 | 86 | 106 | 1.0 | 5.0 | 0.00 | 0.00 | 0.00 | 81 | 1014.7 |
| 20260902221318 | 86 | 77 | 3.0 | 6.0 | 0.00 | 0.00 | 0.00 | 81 | 1014.6 |
| 20260902220817 | 86 | 75 | 3.0 | 6.0 | 0.00 | 0.00 | 0.00 | 81 | 1014.5 |
| 20260902220537 | 86 | 323 | 4.0 | 6.0 | 0.00 | 0.00 | 0.00 | 81 | 1014.5 |
| 20260902215819 | 86 | 344 | 4.0 | 10.0 | 0.00 | 0.00 | 0.00 | 81 | 1014.7 |
| 20260902215531 | 85 | 309 | 4.0 | 10.0 | 0.00 | 0.00 | 0.00 | 82 | 1014.7 |
| 20260902214815 | 85 | 23 | 4.0 | 9.0 | 0.00 | 0.00 | 0.00 | 82 | 1014.7 |
| 20260902214534 | 85 | 78 | 4.0 | 10.0 | 0.00 | 0.00 | 0.00 | 82 | 1014.9 |
| 20260902213814 | 85 | 30 | 4.0 | 10.0 | 0.00 | 0.00 | 0.00 | 81 | 1014.8 |
| 20260902213315 | 86 | 34 | 4.0 | 10.0 | 0.00 | 0.00 | 0.00 | 82 | 1014.5 |
| 20260902212815 | 86 | 42 | 5.0 | 10.0 | 0.00 | 0.00 | 0.00 | 79 | 1014.6 |
| 20260902212315 | 86 | 75 | 5.0 | 10.0 | 0.00 | 0.00 | 0.00 | 79 | 1014.8 |
| 20260902211815 | 87 | 61 | 5.0 | 13.0 | 0.00 | 0.00 | 0.00 | 78 | 1014.7 |
| 20260902211539 | 87 | 0 | 6.0 | 13.0 | 0.00 | 0.00 | 0.00 | 78 | 1014.9 |
| 20260902210809 | 87 | 66 | 6.0 | 13.0 | 0.00 | 0.00 | 0.00 | 78 | 1014.9 |
| 20260902210311 | 87 | 12 | 5.0 | 13.0 | 0.00 | 0.00 | 0.00 | 78 | 1015.0 |
| 20260902205811 | 88 | 42 | 5.0 | 14.0 | 0.00 | 0.00 | 0.00 | 78 | 1015.0 |
| 20260902205311 | 90 | 88 | 5.0 | 14.0 | 0.00 | 0.00 | 0.00 | 75 | 1014.9 |
| 20260902204809 | 92 | 29 | 4.0 | 9.0 | 0.00 | 0.00 | 0.00 | 69 | 1014.8 |
| 20260902204532 | 92 | 267 | 4.0 | 9.0 | 0.00 | 0.00 | 0.00 | 68 | 1014.6 |
| 20260902204316 | 92 | 276 | 4.0 | 9.0 | 0.00 | 0.00 | 0.00 | 70 | 1014.7 |
| 20260902203308 | 92 | 34 | 4.0 | 8.0 | 0.00 | 0.00 | 0.00 | 70 | 1014.9 |
| 20260902202809 | 92 | 294 | 4.0 | 6.0 | 0.00 | 0.00 | 0.00 | 72 | 1014.8 |